Location: Lake Arresoe
(56.0000°N, 12.5000°E)
Time: 07:49:44
(UTC+01:00)

Cosmos 2058 - Pass Details

Date: 18 October 2019
Orbit: 563 x 583 km, 82.5° (Epoch: 16 November)

Event Time Altitude Azimuth Distance (km) Brightness Sun altitude
Rises 19:16:43 0° 353° (N) 2,824 6.5 -11.0°
Reaches altitude 10° 19:19:12 10° 5° (N) 1,920 5.5 -11.4°
Maximum altitude 19:22:52 28° 65° (ENE) 1,122 3.9 -11.9°
Enters shadow 19:25:26 16° 115° (ESE) 1,563 4.6 -12.3°
